Regional Weather Roundup
Issued by NWS

Home | Current Version | Previous Version | Graphics & Text | Print | Product List | Glossary On
Versions: 1 2 3 4 5 6 7 8 9 10 11 12 13 14 15 16 17 18 19 20 21 22 23 24 25 26 27 28 29 30 31 32 33 34 35 36 37 38 39 40 41 42 43 44 45 46 47 48 49 50
000
ASUS43 KFSD 200502
RWRSD

WEATHER ROUNDUP FOR SOUTH DAKOTA
NATIONAL WEATHER SERVICE SIOUX FALLS SD
1100 PM CST SUN FEB 19 2017

NOTE: "FAIR" INDICATES FEW OR NO CLOUDS BELOW 12,000 FEET WITH NO
SIGNIFICANT WEATHER AND/OR OBSTRUCTIONS TO VISIBILITY.


SDZ001>005-009-010-012>017-200600-
NORTHWEST AND NORTH CENTRAL SOUTH DAKOTA

CITY           SKY/WX    TMP DP  RH WIND       PRES   REMARKS
BUFFALO          N/A     46  36  68 NW15      29.48S
FAITH            N/A     53  41  63 SW8G21    29.56R
MOBRIDGE       CLOUDY    45  35  68 SE12      29.49F
$$

SDZ012>016-024>037-041>051-057-063-072>074-200600-
SOUTHWEST AND SOUTH CENTRAL SOUTH DAKOTA

CITY           SKY/WX    TMP DP  RH WIND       PRES   REMARKS
RAPID CTY ARPT CLOUDY    57  35  43 W13       29.55F
PIERRE         CLOUDY    58  39  49 SW6       29.54F
CUSTER         CLOUDY    44  32  62 SW5       29.63S
ELLSWORTH AFB  CLOUDY    56  35  45 W10       29.55F
PHILIP         CLOUDY    49  37  63 CALM      29.54S
PINE RIDGE     CLOUDY    43  36  76 E6        29.58F
SPEARFISH      FAIR      54  34  47 SW15G26   29.57R
WINNER         FAIR      62  46  55 S17       29.58F
$$

SDZ004>011-016>023-039-040-200600-
NORTHEAST SOUTH DAKOTA

CITY           SKY/WX    TMP DP  RH WIND       PRES   REMARKS
ABERDEEN       CLOUDY    54  46  74 S22       29.58S
WATERTOWN      CLOUDY    50  46  86 S14       29.66F
BROOKINGS      CLOUDY    52  47  83 S15       29.70S
SISSETON         N/A     49  46  90 S14       29.62F
$$

SDZ017-020-022-023-036>040-048>070-200600-
SOUTHEAST SOUTH DAKOTA

CITY           SKY/WX    TMP DP  RH WIND       PRES   REMARKS
SIOUX FALLS    CLOUDY    56  50  80 S15       29.73R
HURON          CLOUDY    54  49  83 S14       29.62S
CHAMBERLAIN    CLOUDY    62  48  60 S15       29.57F
MITCHELL       CLOUDY    56  49  77 S15       29.65S
YANKTON        MOCLDY    57  48  72 S17G24    29.71R
$$

ABBREVIATIONS USED IN REMARKS
   TC - TEMPERATURE IN CELSIUS
  WCI - WIND CHILL INDEX
   HX - HEAT INDEX
  VSB - VISIBILITY





USA.gov is the U.S. government's official web portal to all federal, state and local government web resources and services.